Theta_e
340 347 349 353 354 353 352 350 351 354 354 352 352 352 352 352 352 352 353 353 353 353 352 350 348 348 347 346 345 344 345 343 344 341 341 341 339 339 339 339 343 340 342
341 345 346 351 353 353 352 350 350 352 353 352 352 352 352 352 352 351 353 353 352 351 350 350 349 348 348 346 345 346 345 344 343 343 342 342 341 340 339 340 342 338 339
339 343 346 348 352 352 351 350 349 350 351 352 351 351 350 351 350 351 351 352 351 351 350 349 349 349 347 344 345 344 343 342 342 341 342 337 337 339 340 339 339 338 338
339 342 347 344 349 350 350 349 348 348 350 352 352 350 348 348 349 351 350 351 350 350 350 349 348 346 344 345 345 344 342 341 341 339 337 334 335 341 339 338 337 337 338
337 341 344 343 348 350 350 349 348 347 347 349 350 351 351 349 349 350 349 349 349 348 347 347 348 346 344 344 343 343 342 340 338 336 333 333 336 339 337 335 333 334 335
332 340 342 344 347 348 349 348 347 347 346 346 347 349 350 350 350 349 349 348 348 348 347 344 344 344 343 343 342 340 339 338 335 334 332 333 334 340 337 333 330 330 331
322 332 339 343 345 347 347 348 347 346 346 346 345 346 346 347 347 347 347 346 346 346 346 345 344 343 343 342 340 339 338 335 333 332 332 333 336 339 334 330 326 325 326
314 326 335 335 339 343 345 346 346 346 346 346 345 345 345 344 344 345 346 345 346 346 346 346 341 342 342 341 340 339 335 330 328 329 332 332 337 336 332 328 324 322 322
313 321 331 337 339 334 338 340 342 343 343 344 345 344 343 342 343 343 343 344 347 348 346 345 343 342 341 337 339 335 330 327 327 326 328 330 333 333 331 327 324 322 323
311 311 313 319 330 336 342 334 335 337 339 339 339 338 336 336 337 338 337 341 346 346 345 344 342 341 341 338 335 330 326 322 327 324 325 326 331 330 330 326 324 324 325
307 308 310 311 313 322 334 335 330 331 333 332 334 332 332 341 339 339 336 336 342 343 344 343 342 340 337 334 330 324 320 324 323 321 321 324 325 327 328 326 324 325 325
302 305 306 307 309 313 318 333 338 341 342 341 342 343 342 340 339 336 331 330 335 336 340 342 341 336 331 334 326 319 321 325 321 318 317 322 323 326 326 326 325 326 327
300 302 302 303 305 308 312 323 334 336 341 343 342 343 344 341 339 338 339 336 338 329 341 340 340 340 337 331 326 321 325 324 318 316 315 320 321 324 325 326 325 326 327
297 298 299 300 301 304 307 312 324 333 336 339 342 343 341 339 340 339 338 340 339 339 338 337 339 338 335 330 327 323 323 318 314 313 313 316 321 322 324 326 326 327 327
294 296 297 298 299 300 302 305 309 321 333 336 338 340 341 340 340 340 340 339 340 339 338 338 335 331 328 322 318 318 316 316 314 312 312 313 319 321 323 326 327 328 328
292 293 295 295 297 298 299 301 303 308 318 334 337 337 339 339 340 339 337 338 339 340 339 336 330 325 322 318 315 316 318 315 312 311 310 311 316 319 322 325 328 329 328
291 292 292 293 295 296 296 299 301 305 308 315 333 337 337 337 336 335 333 332 334 336 336 333 330 327 322 317 315 314 314 313 310 309 309 311 312 314 319 324 327 329 328
290 290 291 292 292 293 294 297 299 303 306 308 317 335 337 337 336 335 333 332 333 333 332 331 328 323 321 316 316 313 312 312 310 308 309 310 311 310 313 321 325 328 328
289 289 289 290 290 291 292 295 298 300 302 307 317 325 334 335 335 334 333 332 332 331 331 329 327 325 321 317 315 314 312 312 310 307 308 309 310 311 312 317 320 320 327
289 289 289 289 289 290 292 293 295 297 300 303 305 308 314 329 333 333 332 332 331 330 329 328 326 326 325 323 316 312 310 309 310 308 307 308 308 309 311 315 318 318 321
290 288 288 287 288 289 289 290 291 292 296 299 302 304 306 309 318 332 331 330 329 328 327 326 325 321 316 318 308 301 304 305 305 308 308 307 307 308 309 312 317 320 320
288 288 287 287 287 288 289 289 290 291 293 296 301 304 304 305 309 316 330 331 328 328 326 324 323 314 310 308 302 301 297 299 302 304 306 305 306 307 307 310 313 317 318
287 287 287 287 286 287 287 288 288 290 291 292 294 296 299 301 304 306 313 330 328 327 324 323 320 316 308 304 305 303 296 298 299 303 303 304 304 305 306 307 310 314 315
287 288 288 287 286 286 287 286 284 284 285 288 289 292 295 299 302 305 307 320 328 326 325 323 321 319 316 307 305 305 300 303 300 296 302 303 304 303 305 306 306 310 312
287 287 287 287 287 286 286 285 284 283 284 286 288 288 291 294 297 300 308 313 326 324 324 322 319 318 318 313 309 304 300 300 299 299 297 298 302 303 305 305 305 306 309
287 286 286 286 286 286 286 285 284 283 283 283 284 285 287 289 292 298 302 306 321 323 322 322 319 317 317 317 310 311 306 301 296 298 299 298 298 300 303 304 305 304 305
Wind_Speed
3 8 10 11 13 14 14 13 12 11 12 13 12 12 12 12 12 11 11 11 11 12 14 15 14 13 12 11 11 10 11 12 11 11 11 11 11 10 7 6 3 11 9
2 8 11 9 11 13 13 12 11 11 13 14 14 13 12 12 12 12 11 11 11 12 13 14 14 13 12 12 10 9 10 13 11 9 10 10 9 9 7 10 12 8 8
4 5 16 9 10 10 12 12 11 11 13 14 14 14 14 13 13 13 12 11 11 12 12 12 12 13 10 10 11 9 12 12 10 9 11 10 9 6 8 8 8 7 6
7 3 10 11 9 11 10 11 10 11 12 13 14 14 15 14 13 13 12 11 11 12 12 12 12 11 10 10 11 10 11 10 8 7 9 4 9 9 8 7 7 5 5
9 3 4 15 10 10 10 11 12 11 11 12 13 13 14 15 14 13 12 11 10 11 11 11 11 11 12 11 11 11 11 10 6 7 2 2 5 9 7 5 4 3 5
14 8 8 11 11 9 10 11 12 12 12 12 12 12 13 13 13 12 12 11 12 11 12 12 12 12 12 12 12 13 11 10 8 10 4 4 4 11 6 4 4 3 2
15 12 8 9 8 9 9 10 11 12 12 12 13 13 12 13 13 12 12 12 11 11 12 12 12 12 12 12 12 12 12 9 9 6 4 6 5 10 6 4 3 2 1
14 12 7 5 7 7 10 11 12 12 12 12 12 13 13 13 13 13 13 14 13 13 14 15 14 13 13 12 11 10 9 9 8 6 4 4 11 9 6 4 3 2 3
15 11 11 8 3 9 8 9 12 13 13 13 12 11 11 11 11 12 12 13 13 15 15 15 16 13 13 14 10 8 7 8 8 4 5 5 9 7 6 5 4 3 4
17 18 16 13 11 9 9 14 11 12 13 12 10 10 9 8 9 10 9 11 12 11 14 13 14 15 14 13 11 7 7 5 8 4 5 1 9 8 7 6 5 5 5
17 19 18 17 16 13 10 8 11 12 14 12 13 12 11 12 14 16 14 12 13 11 11 13 13 14 13 13 10 7 7 6 8 4 4 10 7 8 8 7 7 7 7
23 23 21 22 21 16 12 10 9 10 9 12 12 14 13 14 12 13 13 14 13 11 11 11 13 13 12 7 6 7 6 8 5 5 4 9 9 11 10 9 9 9 9
20 18 21 20 20 19 16 10 5 5 6 8 14 13 12 11 10 9 8 9 10 11 10 11 10 10 13 8 7 6 8 7 5 4 4 8 10 11 11 11 10 10 10
20 20 20 21 19 19 14 13 11 7 5 7 10 14 11 8 10 10 9 10 11 9 12 11 9 10 11 10 8 7 6 6 5 3 4 10 10 12 12 12 12 12 11
21 20 20 20 19 17 17 13 14 14 7 7 9 11 12 12 11 10 10 10 10 11 11 10 7 7 9 8 4 5 5 7 6 4 3 10 9 11 13 14 13 14 13
20 21 21 20 19 18 16 17 14 13 16 8 9 9 13 11 10 9 9 9 9 9 8 8 9 8 8 7 7 9 9 7 7 6 4 6 10 10 12 14 15 15 14
18 20 21 21 20 19 19 16 13 12 14 14 9 13 12 12 12 10 9 10 9 8 9 8 10 9 8 7 9 7 6 8 7 7 6 5 7 11 11 13 16 17 15
20 20 20 18 20 20 19 15 13 12 12 13 14 9 13 14 15 13 11 11 11 9 9 9 8 8 9 9 8 7 7 8 9 9 7 6 6 7 10 13 12 15 17
20 21 21 21 20 21 19 15 14 16 12 12 13 12 13 15 17 14 11 11 13 9 10 10 10 12 9 9 7 7 7 8 8 8 9 9 9 7 6 13 13 11 15
19 20 20 18 21 20 14 13 13 12 12 12 13 13 20 13 16 15 13 12 12 11 11 11 14 11 10 10 8 8 6 6 7 7 9 8 8 9 8 7 8 7 13
19 20 21 22 21 16 13 13 13 13 13 12 12 19 18 17 21 16 13 12 12 12 12 14 13 14 6 7 6 2 2 3 6 7 8 8 9 9 10 8 6 8 7
18 20 21 21 21 16 13 12 12 13 13 13 13 16 20 19 19 20 17 14 13 13 15 14 14 5 5 9 5 4 4 3 6 9 9 9 11 9 10 10 10 10 8
19 19 19 20 20 17 19 13 13 13 12 11 13 14 17 22 21 20 22 18 14 13 11 14 12 14 8 9 10 7 4 5 4 8 13 10 11 10 10 10 11 11 9
17 17 18 18 19 17 19 15 18 13 15 13 13 13 17 20 22 21 20 21 19 12 16 15 14 16 13 11 8 7 3 5 5 4 6 11 10 11 11 9 10 11 11
16 16 16 18 18 19 18 17 13 15 12 13 13 19 17 17 20 21 21 22 18 13 16 15 14 17 14 12 12 7 7 4 4 2 4 5 8 9 9 9 9 9 11
14 15 15 17 18 19 18 18 18 19 19 15 16 14 13 13 15 19 22 18 21 15 15 15 16 19 16 15 12 10 11 8 5 4 3 5 6 7 8 8 9 8 8
Wind_Direction
134 149 181 182 176 165 157 172 172 168 169 169 167 165 164 163 161 159 157 156 159 166 157 152 152 146 148 134 124 128 126 118 107 109 108 103 102 99 87 27 170 86 93
1 165 171 195 183 174 165 178 177 172 171 173 173 170 170 169 167 166 166 164 163 167 167 164 161 153 143 125 137 142 120 122 111 113 116 109 107 108 92 51 49 83 79
353 189 174 204 192 190 171 183 184 180 180 181 181 178 179 177 173 170 170 171 176 173 172 166 159 148 132 137 146 148 136 126 126 150 178 153 117 129 111 93 90 86 71
3 225 183 176 210 209 185 186 199 192 189 188 187 189 191 188 184 178 175 172 177 178 176 174 172 154 150 152 149 145 138 136 137 186 217 175 133 134 119 106 92 74 68
12 336 211 161 210 210 201 191 195 203 206 198 194 195 194 195 194 187 184 181 180 181 180 179 168 158 160 162 159 157 147 145 163 213 220 177 124 135 128 108 117 95 31
11 10 109 156 191 228 209 198 203 208 208 208 207 205 204 201 198 195 188 189 188 187 186 186 180 171 169 169 165 161 158 162 185 228 209 106 292 137 137 114 77 69 38
4 7 341 152 194 224 231 219 213 217 219 216 208 210 212 210 206 204 201 202 201 202 196 185 177 172 170 170 170 169 169 178 208 219 216 158 156 137 147 142 125 122 144
2 1 359 146 200 238 226 221 218 218 225 230 225 218 212 214 214 211 207 204 209 210 200 188 180 174 170 171 175 178 176 194 216 235 228 224 121 143 167 163 153 166 191
2 10 358 349 227 217 257 233 216 215 219 223 227 229 226 217 216 217 214 212 212 213 206 193 167 179 179 187 180 173 183 211 249 219 226 231 135 175 185 175 187 183 183
4 359 359 352 335 315 236 226 230 215 209 219 234 217 222 225 219 215 217 217 218 208 196 179 173 174 182 177 184 171 192 228 250 237 228 167 147 193 198 194 189 191 186
8 359 4 0 349 330 298 268 221 226 216 212 223 217 206 227 223 226 219 213 210 210 197 186 182 181 179 157 154 177 192 225 224 237 235 135 159 206 205 198 201 197 193
0 1 4 356 346 337 318 292 258 246 230 225 225 220 215 223 226 215 215 212 204 206 204 201 183 175 163 166 163 174 218 236 240 238 240 148 184 213 209 201 204 200 196
351 355 355 352 345 343 340 315 286 251 245 233 224 222 225 215 219 217 214 202 214 208 215 210 200 194 190 174 170 193 220 221 231 230 210 160 201 217 216 205 208 205 200
348 349 348 349 345 345 337 325 309 263 224 250 235 226 221 225 220 215 207 205 203 209 214 211 210 195 186 180 181 194 214 207 219 224 199 171 208 216 218 210 209 207 202
345 345 346 344 343 341 337 331 326 318 258 225 253 236 221 221 220 222 214 213 202 203 204 212 182 175 182 180 163 175 209 225 225 224 232 173 204 219 221 215 211 210 203
345 344 342 342 342 338 336 330 322 316 318 261 227 246 244 231 228 219 221 233 225 210 203 180 177 181 187 175 179 205 202 214 220 216 219 175 198 218 227 224 215 213 204
347 343 343 339 341 339 334 329 319 313 315 313 269 233 232 225 225 220 216 214 218 214 209 189 188 183 185 179 190 195 200 205 219 214 213 219 186 214 227 235 223 217 207
349 348 342 341 338 339 332 325 319 316 312 305 301 256 234 229 222 222 216 213 215 207 198 199 197 182 193 186 184 191 196 205 210 211 206 206 213 203 214 226 234 237 211
353 350 347 344 342 339 329 326 323 324 312 307 304 291 255 242 230 223 223 215 207 207 197 194 202 188 198 194 192 189 190 210 204 211 209 207 210 210 201 204 219 242 209
356 354 350 348 346 341 335 332 333 322 324 318 316 309 326 280 239 231 230 220 209 204 202 200 197 200 193 192 194 196 191 205 204 211 212 209 215 208 220 215 197 220 210
1 356 355 350 350 346 342 340 331 328 323 315 322 311 307 305 310 241 230 223 204 209 203 198 204 184 189 172 145 48 311 219 223 215 213 209 207 208 214 214 204 205 193
0 359 355 354 350 348 346 333 328 325 317 313 311 326 325 322 322 319 240 224 218 213 200 204 199 167 160 176 147 124 180 240 229 227 210 211 208 203 212 210 209 207 187
359 358 356 354 351 351 347 340 334 324 325 324 328 318 321 315 310 307 305 240 215 209 203 196 189 185 183 199 193 149 156 209 165 198 217 206 206 205 203 206 207 209 199
354 354 354 355 353 354 349 346 343 335 328 327 318 314 319 314 309 303 288 285 229 213 216 207 195 198 188 199 204 235 284 138 184 160 210 211 209 210 205 201 204 206 201
353 352 352 353 356 357 354 352 347 339 326 319 320 320 319 317 316 308 301 307 242 213 221 207 205 200 207 195 203 174 188 277 124 242 161 191 212 212 210 202 197 202 206
351 351 351 353 356 358 357 355 353 346 337 332 330 326 324 320 316 314 314 309 274 223 219 216 206 202 204 211 202 193 191 182 213 185 136 165 199 204 207 200 204 196 200